Flag for U.S.A. Weather past 2 weeks in Kansas City, Missouri, U.S.A.

Now
65 °F

Clear.


Feels Like: 65 °F
Forecast: 62 / 75 °F
Wind: 5 mph from East

Location: Kansas City Downtown Airport

Current Time: Sep 17, 2014 at 11:20:17 PM

Latest Report: Sep 17, 2014 at 10:54 PM


Visibility: 9 mi

Pressure: 29.93 "Hg

Humidity: 94%

Dew point: 63 °F

Location of Kansas CityLocation

Historic Weather in Kansas City — Graph

°F

Kansas City temperature yesterday

Maximum temperature yesterday: 73 °F (at 4:54 PM)
Minimum temperature yesterday: 50 °F (at 5:54 AM)
Average temperature yesterday: 62 °F

Past Weeks' High & Low Weather Summary

 TemperatureHumidityPressure
High94 °F (Sep 4, 1:54 PM)97% (Sep 13, 7:54 AM)30.42 "Hg (Sep 13, 7:54 AM)
Low41 °F (Sep 13, 6:58 AM)40% (Sep 7, 5:54 PM)29.54 "Hg (Sep 9, 11:54 PM)
Average69 °F71%30.05 "Hg
* Reported Sep 2 9:54 PM — Sep 17 9:54 PM, Kansas City, Weather by CustomWeather, © 2014

Note: Actual official high and low records may vary slightly from our data, if they occured in-between our weather recording intervals... More about our weather records

Advertising

Kansas City weather history for previous 24 hours

 ConditionsComfort  
Time TempWeatherWind HumidityBarometerVisibility
9:54 PM
Sep 17
67 °FClear.6 mph90%29.91 "Hg9 mi
8:54 PM68 °FClear.6 mph90%29.90 "Hg10 mi
7:54 PM69 °FSunny.5 mph87%29.89 "Hg10 mi
6:54 PM72 °FPassing clouds.9 mph81%29.88 "Hg10 mi
5:54 PM74 °FOvercast.5 mph76%29.86 "Hg10 mi
4:54 PM74 °FOvercast.5 mph79%29.87 "Hg10 mi
3:54 PM74 °FOvercast.5 mph76%29.88 "Hg10 mi
2:54 PM73 °FOvercast.7 mph81%29.88 "Hg8 mi
1:54 PM72 °FMostly cloudy.5 mph81%29.90 "Hg7 mi
12:54 PM70 °FLow clouds.5 mph84%29.91 "Hg6 mi
11:54 AM68 °FFog.7 mph87%29.92 "Hg6 mi
10:54 AM67 °FFog.7 mph90%29.92 "Hg5 mi
10:02 AM65 °FFog.6 mph94%29.93 "Hg2 mi
9:54 AM65 °FFog.6 mph94%29.91 "Hg2 mi
8:54 AM65 °FFog.3 mph94%29.91 "Hg5 mi
7:54 AM64 °FFog.7 mph94%29.92 "Hg6 mi
6:54 AM64 °FLow clouds.No wind94%29.89 "Hg8 mi
6:00 AM63 °FThunderstorms. Fog.5 mph93%29.91 "Hg3 mi
4:54 AM65 °FOvercast.5 mph81%29.90 "Hg10 mi
3:54 AM66 °FOvercast.3 mph78%29.94 "Hg10 mi
2:54 AM66 °FPassing clouds.No wind75%29.96 "Hg10 mi
1:54 AM66 °FOvercast.5 mph75%29.98 "Hg10 mi
12:54 AM67 °FOvercast.5 mph71%29.99 "Hg10 mi
11:54 PM
Sep 16
67 °FOvercast.6 mph71%30.01 "Hg10 mi
Weather by CustomWeather, © 2014

See weather overviewHow to use our weather pages